Regional Weather Roundup
Issued by NWS Jackson, KY

Home | Current Version | Previous Version | Graphics & Text | Print | Product List | Glossary On
Versions: 1 2 3 4 5 6 7 8 9 10 11 12 13 14 15 16 17 18 19 20 21 22 23 24 25 26 27 28 29 30 31 32 33 34 35 36 37 38 39 40 41 42 43 44 45 46 47 48
000
ASUS43 KJKL 310910
RWRJKL

EAST KENTUCKY HOURLY WEATHER ROUNDUP
NATIONAL WEATHER SERVICE JACKSON KY
500 AM EDT FRI JUL 31 2015

NOTE: "FAIR" INDICATES FEW OR NO CLOUDS BELOW 12,000 FEET WITH
NO SIGNIFICANT WEATHER AND/OR OBSTRUCTIONS TO VISIBILITY.

* THESE REPORTS ARE NOT UNDER NWS QUALITY CONTROL AND MAY NOT
  REPORT WEATHER SUCH AS PRECIPITATION AND FOG.

KYZ079-080-083-085-087-088-110-112-115-119-120-311000
...EASTERN KENTUCKY...

CITY           SKY/WX    TMP DP  RH WIND       PRES   REMARKS
JACKSON        PTCLDY    67  57  70 NW3       30.07S
LONDON         CLEAR     63  58  83 CALM      30.08S
SOMERSET*      CLEAR     59  59 100 CALM      30.09S
MONTICELLO*    FOG       59  59 100 CALM      30.10F VSB 1
WILLIAMSBURG*    N/A     61  61 100 CALM      30.08S
MIDDLESBORO*   CLEAR     61  61 100 CALM      30.09S
HAZARD APT*    MOSUNNY   61  61 100 CALM      30.07S FOG
BLACK MTN*       N/A     59  55  88 N8          N/A
PIKEVILLE APT* CLEAR     63  63 100 CALM      30.07S
BIG SANDY*     SUNNY     64  62  96 SW3       30.06S
MOREHEAD APT*  SUNNY     63  61  94 CALM      30.07F
$$

KYZ035-036-041-042-044-050-067-078-099-311000
...CENTRAL KENTUCKY...

CITY           SKY/WX    TMP DP  RH WIND       PRES   REMARKS
MT STERLING*   CLEAR     61  61 100 CALM      30.07F
FLEMING/MASON* CLEAR     63  61  94 NW5       30.06F
DANVILLE*      CLEAR     61  59  94 CALM      30.08S
RICHMOND*      CLEAR     61  59  94 CALM      30.07S
LEXINGTON      CLEAR     65  60  84 CALM      30.07S
FRANKFORT      CLEAR     63  59  87 CALM      30.05F
$$

KYZ091>093-OHZ055-061-077-WVZ005-015-034-035-042-311000
...SOUTHERN OHIO/WEST VIRGINIA...

CITY           SKY/WX    TMP DP  RH WIND       PRES   REMARKS
COVINGTON      CLEAR     66  62  86 CALM      30.05F
COLUMBUS       CLEAR     64  60  87 CALM      30.02S
DAYTON         CLEAR     64  59  83 W7        30.04F
WILMINGTON     CLEAR     65  59  81 W6        30.04F
HUNTINGTON     CLEAR     62  61  96 CALM      30.03S
CHARLESTON     PTCLDY    62  61  96 CALM      30.03S
PINEVILLE*     FOG       63  63 100 MISG      30.13R VSB 1/4
BECKLEY        CLEAR     58  55  90 CALM      30.09F
BLUEFIELD      CLEAR     64  56  75 W3        30.12S
$$

VAZ002-007-008-TNZ017-027-036-066-071-311000
...SOUTHWEST VIRGINIA/EAST TENNESSEE...

CITY           SKY/WX    TMP DP  RH WIND       PRES   REMARKS
WISE*          CLEAR     63  61  94 CALM      30.14S
ABINGDON*      CLEAR     62  59  90 CALM      30.09S
BRISTOL        PTCLDY    63  60  90 CALM      30.07R
KNOXVILLE      CLEAR     70  62  76 N7        30.04R
OAK RIDGE      CLEAR     68  61  78 CALM      30.06S
CROSSVILLE     CLEAR     65  57  75 N3        30.11S
NASHVILLE      CLEAR     69  63  81 N3        30.07S
$$

...KEY TO REMARKS...
VSB - VISIBILITY IN MILES
WCI - WIND CHILL INDEX
HX  - HEAT INDEX

$$


USA.gov is the U.S. government's official web portal to all federal, state and local government web resources and services.